MLP105 LIBP-LIMC

Flight info

Callsign MLP105
Flight time 0h 58m
Altitude 18000
Route OTRET M736 ANC/N0434F340 DCT ADOSA/N0432F350 DCT IDREK DCT ELTAR DCT NOBMI DCT LEGLO DCT PEXUG
Aircraft A320/M-SDE3FGHIRWY/LB1

Departure

Time 2026-04-23 14:21
Airport Abruzzo Airport (LIBP)

Arrival

Time 2026-04-23 15:19
Airport Milan Malpensa International Airport (LIMC)
Time Latitude Longitude Altitude Speed Heading
2026-04-23 13:47 42.43000 14.18699 48 ft 0 kts 127°
2026-04-23 14:11 42.43003 14.18693 48 ft 2 kts 127°
2026-04-23 14:11 42.43015 14.18676 46 ft 2 kts 135°
2026-04-23 14:11 42.43027 14.18660 45 ft 2 kts 135°
2026-04-23 14:12 42.43039 14.18644 43 ft 2 kts 173°
2026-04-23 14:12 42.43055 14.18646 45 ft 0 kts 169°
2026-04-23 14:12 42.43062 14.18644 44 ft 0 kts 192°
2026-04-23 14:15 42.43053 14.18641 46 ft 6 kts 198°
2026-04-23 14:15 42.43024 14.18584 48 ft 7 kts 259°
2026-04-23 14:15 42.43017 14.18522 48 ft 6 kts 262°
2026-04-23 14:16 42.43010 14.18471 48 ft 4 kts 242°
2026-04-23 14:16 42.42998 14.18460 45 ft 2 kts 225°
2026-04-23 14:16 42.42986 14.18444 48 ft 3 kts 222°
2026-04-23 14:16 42.42920 14.18370 47 ft 20 kts 217°
2026-04-23 14:17 42.42813 14.18260 48 ft 18 kts 216°
2026-04-23 14:17 42.42717 14.18160 48 ft 17 kts 218°
2026-04-23 14:17 42.42628 14.18068 47 ft 15 kts 217°
2026-04-23 14:17 42.42547 14.17985 48 ft 15 kts 217°
2026-04-23 14:18 42.42432 14.17867 47 ft 23 kts 217°
2026-04-23 14:18 42.42311 14.17741 48 ft 20 kts 217°
2026-04-23 14:18 42.42260 14.17605 47 ft 9 kts 281°
2026-04-23 14:18 42.42261 14.17597 47 ft 0 kts 280°
2026-04-23 14:19 42.42261 14.17594 47 ft 2 kts 280°
2026-04-23 14:20 42.42269 14.17534 47 ft 11 kts 281°
2026-04-23 14:20 42.42344 14.17488 47 ft 15 kts 33°
2026-04-23 14:20 42.42444 14.17589 46 ft 30 kts 37°
2026-04-23 14:20 42.42809 14.17966 47 ft 100 kts 37°
2026-04-23 14:21 42.43511 14.18695 63 ft 150 kts 35°
2026-04-23 14:21 42.44287 14.19535 793 ft 136 kts 34°
2026-04-23 14:21 42.45021 14.20392 1360 ft 143 kts 38°
2026-04-23 14:21 42.45802 14.21264 1914 ft 146 kts 33°
2026-04-23 14:22 42.46681 14.22135 2142 ft 172 kts 32°
2026-04-23 14:22 42.47714 14.23149 2438 ft 195 kts 31°
2026-04-23 14:22 42.48881 14.24305 2783 ft 220 kts 30°
2026-04-23 14:22 42.50352 14.25034 3200 ft 237 kts 357°
2026-04-23 14:23 42.51913 14.24323 3964 ft 245 kts 327°
2026-04-23 14:23 42.53249 14.22833 4800 ft 252 kts 317°
2026-04-23 14:23 42.54499 14.21116 5629 ft 258 kts 315°
2026-04-23 14:23 42.55749 14.19358 6543 ft 260 kts 316°
2026-04-23 14:24 42.57043 14.17604 7321 ft 265 kts 319°
2026-04-23 14:24 42.58389 14.15864 8111 ft 270 kts 320°
2026-04-23 14:24 42.59786 14.14132 8911 ft 274 kts 321°
2026-04-23 14:24 42.61221 14.12404 9713 ft 278 kts 322°
2026-04-23 14:25 42.62692 14.10657 10447 ft 284 kts 323°
2026-04-23 14:25 42.64242 14.08830 10720 ft 307 kts 323°
2026-04-23 14:25 42.65911 14.06871 11049 ft 324 kts 323°
2026-04-23 14:25 42.67633 14.04838 11688 ft 331 kts 323°
2026-04-23 14:26 42.69435 14.02883 12379 ft 333 kts 331°
2026-04-23 14:26 42.71479 14.01415 13087 ft 333 kts 340°
2026-04-23 14:26 42.73603 14.00121 13804 ft 337 kts 340°
2026-04-23 14:26 42.75751 13.98808 14446 ft 340 kts 340°
2026-04-23 14:27 42.77918 13.97478 15079 ft 343 kts 340°
2026-04-23 14:27 42.80102 13.96136 15713 ft 346 kts 340°
2026-04-23 14:27 42.82305 13.94780 16342 ft 349 kts 340°
2026-04-23 14:27 42.84524 13.93411 16966 ft 352 kts 340°
2026-04-23 14:28 42.86764 13.92032 17588 ft 355 kts 340°
2026-04-23 14:28 42.89023 13.90639 18216 ft 358 kts 340°
2026-04-23 14:28 42.91304 13.89229 18784 ft 361 kts 340°
2026-04-23 14:28 42.93599 13.87807 19311 ft 364 kts 340°
2026-04-23 14:29 42.95917 13.86371 19837 ft 368 kts 340°
2026-04-23 14:29 42.98258 13.84921 20347 ft 371 kts 340°
2026-04-23 14:29 43.00616 13.83461 20870 ft 374 kts 340°
2026-04-23 14:29 43.02997 13.81988 21379 ft 377 kts 340°
2026-04-23 14:30 43.05399 13.80501 21905 ft 381 kts 340°
2026-04-23 14:30 43.07824 13.78997 22426 ft 384 kts 340°
2026-04-23 14:30 43.10266 13.77478 22931 ft 387 kts 340°
2026-04-23 14:30 43.12730 13.75941 23436 ft 391 kts 340°
2026-04-23 14:31 43.15210 13.74394 23888 ft 394 kts 340°
2026-04-23 14:31 43.17716 13.72829 24295 ft 397 kts 340°
2026-04-23 14:31 43.20199 13.71280 24687 ft 399 kts 340°
2026-04-23 14:31 43.22766 13.69677 25089 ft 401 kts 340°
2026-04-23 14:32 43.25314 13.68082 25472 ft 404 kts 340°
2026-04-23 14:32 43.27842 13.66498 25858 ft 406 kts 340°
2026-04-23 14:32 43.30415 13.64888 26229 ft 408 kts 340°
2026-04-23 14:32 43.33005 13.63265 26597 ft 410 kts 340°
2026-04-23 14:33 43.35608 13.61637 26970 ft 412 kts 340°
2026-04-23 14:33 43.38225 13.60001 27309 ft 414 kts 340°
2026-04-23 14:33 43.40854 13.58353 27670 ft 416 kts 340°
2026-04-23 14:33 43.43493 13.56691 28010 ft 419 kts 340°
2026-04-23 14:34 43.46144 13.55017 28358 ft 421 kts 340°
2026-04-23 14:34 43.48811 13.53330 28682 ft 423 kts 340°
2026-04-23 14:34 43.51490 13.51636 28999 ft 425 kts 340°
2026-04-23 14:34 43.54185 13.49936 29330 ft 427 kts 340°
2026-04-23 14:35 43.56014 13.48783 29512 ft 428 kts 339°
2026-04-23 14:35 43.58631 13.46891 29805 ft 434 kts 332°
2026-04-23 14:35 43.61076 13.44394 30108 ft 441 kts 324°
2026-04-23 14:35 43.63442 13.41692 30364 ft 442 kts 324°
2026-04-23 14:36 43.65822 13.38980 30590 ft 444 kts 324°
2026-04-23 14:36 43.68212 13.36259 30817 ft 446 kts 324°
2026-04-23 14:36 43.70611 13.33530 31045 ft 448 kts 324°
2026-04-23 14:36 43.73050 13.30753 31268 ft 449 kts 324°
2026-04-23 14:37 43.75424 13.28048 31493 ft 450 kts 324°
2026-04-23 14:37 43.77825 13.25303 31808 ft 449 kts 324°
2026-04-23 14:37 43.80227 13.22553 32120 ft 448 kts 324°
2026-04-23 14:37 43.82627 13.19808 32421 ft 447 kts 324°
2026-04-23 14:38 43.85025 13.17070 32730 ft 446 kts 324°
2026-04-23 14:38 43.87418 13.14332 33015 ft 446 kts 324°
2026-04-23 14:38 43.89802 13.11592 33292 ft 445 kts 324°
2026-04-23 14:38 43.92183 13.08847 33585 ft 445 kts 324°
2026-04-23 14:39 43.94560 13.06102 33885 ft 444 kts 324°
2026-04-23 14:39 43.96937 13.03360 34151 ft 444 kts 324°
2026-04-23 14:39 44.01641 12.97936 34215 ft 435 kts 324°
2026-04-23 14:40 44.06279 12.92578 34222 ft 433 kts 324°
2026-04-23 14:40 44.10905 12.87229 34218 ft 433 kts 324°
2026-04-23 14:41 44.15533 12.81859 34216 ft 433 kts 324°
2026-04-23 14:41 44.20151 12.76486 34209 ft 433 kts 324°
2026-04-23 14:42 44.24770 12.71102 34211 ft 433 kts 324°
2026-04-23 14:42 44.29387 12.65706 34197 ft 433 kts 324°
2026-04-23 14:43 44.34002 12.60297 34216 ft 433 kts 324°
2026-04-23 14:43 44.38618 12.54890 34209 ft 433 kts 324°
2026-04-23 14:44 44.43234 12.49478 34202 ft 433 kts 324°
2026-04-23 14:44 44.47846 12.44050 34189 ft 433 kts 324°
2026-04-23 14:45 44.52449 12.38602 34198 ft 434 kts 324°
2026-04-23 14:45 44.57059 12.33148 34197 ft 434 kts 324°
2026-04-23 14:46 44.61671 12.27686 34202 ft 434 kts 324°
2026-04-23 14:46 44.66288 12.22207 34206 ft 434 kts 324°
2026-04-23 14:47 44.70898 12.16711 34194 ft 435 kts 324°
2026-04-23 14:47 44.75508 12.11203 34191 ft 435 kts 324°
2026-04-23 14:48 44.80122 12.05684 34208 ft 435 kts 324°
2026-04-23 14:48 44.84707 12.00191 34209 ft 435 kts 324°
2026-04-23 14:49 44.89321 11.94650 34221 ft 436 kts 324°
2026-04-23 14:49 44.93926 11.89097 34201 ft 435 kts 324°
2026-04-23 14:50 44.98526 11.83537 34209 ft 435 kts 324°
2026-04-23 14:50 45.03138 11.77960 34208 ft 435 kts 324°
2026-04-23 14:51 45.07761 11.72359 34213 ft 435 kts 324°
2026-04-23 14:51 45.12332 11.66821 34205 ft 435 kts 324°
2026-04-23 14:52 45.16924 11.61236 34201 ft 435 kts 324°
2026-04-23 14:52 45.21519 11.55631 34172 ft 436 kts 323°
2026-04-23 14:53 45.26117 11.50007 34179 ft 436 kts 323°
2026-04-23 14:53 45.30707 11.44368 34179 ft 437 kts 323°
2026-04-23 14:54 45.35302 11.38721 34181 ft 437 kts 323°
2026-04-23 14:54 45.39903 11.33080 34178 ft 437 kts 323°
2026-04-23 14:55 45.44498 11.27425 34170 ft 437 kts 323°
2026-04-23 14:55 45.49083 11.21740 34157 ft 437 kts 323°
2026-04-23 14:56 45.53667 11.16050 34156 ft 437 kts 323°
2026-04-23 14:56 45.58259 11.10352 34168 ft 437 kts 323°
2026-04-23 14:57 45.62270 11.03764 34170 ft 448 kts 304°
2026-04-23 14:57 45.63587 10.99711 34154 ft 453 kts 292°
2026-04-23 14:57 45.64376 10.95344 33767 ft 455 kts 282°
2026-04-23 14:58 45.64580 10.90839 33250 ft 454 kts 273°
2026-04-23 14:58 45.64596 10.86339 32724 ft 451 kts 273°
2026-04-23 14:58 45.64614 10.81879 32231 ft 447 kts 273°
2026-04-23 14:58 45.64640 10.77454 31745 ft 443 kts 274°
2026-04-23 14:59 45.64672 10.73070 31256 ft 440 kts 274°
2026-04-23 14:59 45.64705 10.68710 30803 ft 437 kts 274°
2026-04-23 14:59 45.64734 10.64389 30350 ft 434 kts 274°
2026-04-23 14:59 45.64763 10.60097 29839 ft 430 kts 274°
2026-04-23 15:00 45.64791 10.55829 29292 ft 428 kts 273°
2026-04-23 15:00 45.64815 10.51588 28799 ft 425 kts 273°
2026-04-23 15:00 45.64835 10.47386 28322 ft 422 kts 273°
2026-04-23 15:00 45.64854 10.43212 27884 ft 418 kts 273°
2026-04-23 15:01 45.64875 10.39081 27453 ft 414 kts 273°
2026-04-23 15:01 45.64897 10.34987 27036 ft 410 kts 273°
2026-04-23 15:01 45.64918 10.30936 26653 ft 406 kts 273°
2026-04-23 15:01 45.64937 10.26925 26250 ft 402 kts 273°
2026-04-23 15:02 45.64948 10.24282 25968 ft 400 kts 273°
2026-04-23 15:02 45.64967 10.18998 25389 ft 396 kts 272°
2026-04-23 15:02 45.64977 10.15081 24985 ft 392 kts 272°
2026-04-23 15:02 45.64991 10.11199 24584 ft 389 kts 272°
2026-04-23 15:03 45.65003 10.07352 24190 ft 385 kts 272°
2026-04-23 15:03 45.65014 10.03540 23775 ft 382 kts 272°
2026-04-23 15:03 45.65022 9.99755 23310 ft 379 kts 272°
2026-04-23 15:03 45.65026 9.96000 22856 ft 376 kts 272°
2026-04-23 15:04 45.65028 9.92270 22407 ft 374 kts 272°
2026-04-23 15:04 45.64912 9.88577 21966 ft 373 kts 262°
2026-04-23 15:04 45.64159 9.85039 21528 ft 372 kts 250°
2026-04-23 15:04 45.63233 9.81597 21087 ft 370 kts 250°
2026-04-23 15:05 45.62302 9.78180 20663 ft 368 kts 250°
2026-04-23 15:05 45.61370 9.74782 20268 ft 366 kts 250°
2026-04-23 15:05 45.60442 9.71413 19870 ft 364 kts 250°
2026-04-23 15:05 45.59518 9.68060 19485 ft 362 kts 250°
2026-04-23 15:06 45.58598 9.64727 19094 ft 360 kts 250°
2026-04-23 15:06 45.57670 9.61348 18149 ft 373 kts 250°
2026-04-23 15:06 45.56703 9.57829 17074 ft 388 kts 250°
2026-04-23 15:06 45.55700 9.54180 15976 ft 402 kts 250°
2026-04-23 15:07 45.54658 9.50406 14861 ft 416 kts 249°
2026-04-23 15:07 45.53581 9.46520 13895 ft 425 kts 249°
2026-04-23 15:07 45.52495 9.42608 13140 ft 423 kts 249°
2026-04-23 15:07 45.51418 9.38728 12472 ft 419 kts 249°
2026-04-23 15:08 45.50349 9.34890 11854 ft 414 kts 249°
2026-04-23 15:08 45.49293 9.31110 11253 ft 407 kts 249°
2026-04-23 15:08 45.48266 9.27443 10618 ft 403 kts 249°
2026-04-23 15:09 45.46311 9.20459 10132 ft 347 kts 249°
2026-04-23 15:09 45.45451 9.17397 10004 ft 320 kts 249°
2026-04-23 15:09 45.44655 9.14567 9841 ft 298 kts 249°
2026-04-23 15:09 45.43910 9.11923 9686 ft 277 kts 249°
2026-04-23 15:10 45.43445 9.10269 9524 ft 267 kts 250°
2026-04-23 15:10 45.42541 9.07042 8945 ft 259 kts 250°
2026-04-23 15:10 45.41876 9.04678 8427 ft 256 kts 250°
2026-04-23 15:10 45.41211 9.02327 7819 ft 258 kts 249°
2026-04-23 15:11 45.40542 8.99959 7183 ft 259 kts 250°
2026-04-23 15:11 45.39861 8.97593 6619 ft 256 kts 245°
2026-04-23 15:11 45.38805 8.95700 6475 ft 239 kts 219°
2026-04-23 15:11 45.37343 8.94670 6154 ft 233 kts 199°
2026-04-23 15:12 45.35892 8.93670 6024 ft 236 kts 226°
2026-04-23 15:12 45.35117 8.91624 5818 ft 237 kts 265°
2026-04-23 15:12 45.35239 8.89381 5753 ft 223 kts 288°
2026-04-23 15:12 45.35695 8.87301 5697 ft 220 kts 287°
2026-04-23 15:13 45.36078 8.85225 5647 ft 213 kts 285°
2026-04-23 15:13 45.36426 8.83199 5583 ft 210 kts 285°
2026-04-23 15:13 45.36951 8.81296 5497 ft 206 kts 308°
2026-04-23 15:13 45.38022 8.79984 5363 ft 205 kts 336°
2026-04-23 15:14 45.39392 8.79509 5107 ft 201 kts 356°
2026-04-23 15:14 45.40771 8.79350 4811 ft 197 kts 354°
2026-04-23 15:14 45.42117 8.79071 4542 ft 193 kts 350°
2026-04-23 15:14 45.43425 8.78735 4276 ft 189 kts 349°
2026-04-23 15:15 45.44708 8.78389 4024 ft 187 kts 348°
2026-04-23 15:15 45.45979 8.78042 3775 ft 185 kts 346°
2026-04-23 15:15 45.47227 8.77699 3539 ft 181 kts 347°
2026-04-23 15:15 45.48455 8.77362 3302 ft 178 kts 346°
2026-04-23 15:16 45.49659 8.77032 3071 ft 175 kts 345°
2026-04-23 15:16 45.50849 8.76704 2830 ft 174 kts 347°
2026-04-23 15:16 45.52035 8.76378 2600 ft 172 kts 347°
2026-04-23 15:16 45.53192 8.76060 2368 ft 166 kts 346°
2026-04-23 15:17 45.53932 8.75857 2224 ft 162 kts 347°
2026-04-23 15:17 45.55021 8.75558 2013 ft 157 kts 345°
2026-04-23 15:17 45.56102 8.75259 1808 ft 159 kts 345°
2026-04-23 15:17 45.57189 8.74960 1607 ft 157 kts 346°
2026-04-23 15:18 45.58262 8.74664 1396 ft 158 kts 346°
2026-04-23 15:18 45.59326 8.74371 1192 ft 155 kts 346°
2026-04-23 15:18 45.60379 8.74088 982 ft 152 kts 345°
2026-04-23 15:18 45.61421 8.73793 814 ft 152 kts 346°
2026-04-23 15:19 45.62401 8.73520 740 ft 125 kts 350°
2026-04-23 15:19 45.63079 8.73328 735 ft 71 kts 347°
2026-04-23 15:19 45.63438 8.73236 738 ft 42 kts 349°
2026-04-23 15:19 45.63652 8.73133 740 ft 18 kts 331°
2026-04-23 15:20 45.63758 8.73016 737 ft 21 kts 316°
2026-04-23 15:20 45.63839 8.72866 735 ft 17 kts 299°
2026-04-23 15:20 45.63906 8.72710 736 ft 20 kts 302°
2026-04-23 15:20 45.63851 8.72597 736 ft 17 kts 180°
2026-04-23 15:21 45.63731 8.72625 736 ft 18 kts 170°
2026-04-23 15:21 45.63600 8.72662 735 ft 20 kts 169°
2026-04-23 15:21 45.63457 8.72700 736 ft 21 kts 174°
2026-04-23 15:21 45.63324 8.72610 736 ft 22 kts 213°
2026-04-23 15:22 45.63194 8.72487 737 ft 23 kts 214°
2026-04-23 15:22 45.63074 8.72364 740 ft 19 kts 226°
2026-04-23 15:22 45.63018 8.72189 739 ft 21 kts 264°
2026-04-23 15:22 45.62998 8.71977 735 ft 22 kts 256°
2026-04-23 15:23 45.62957 8.71765 735 ft 16 kts 238°
2026-04-23 15:23 45.62895 8.71760 736 ft 8 kts 164°
2026-04-23 15:23 45.62795 8.71789 734 ft 19 kts 169°
2026-04-23 15:23 45.62658 8.71825 736 ft 21 kts 169°
2026-04-23 15:24 45.62518 8.71863 736 ft 21 kts 168°
2026-04-23 15:24 45.62380 8.71902 736 ft 18 kts 169°
2026-04-23 15:24 45.62317 8.71830 736 ft 10 kts 208°
2026-04-23 15:24 45.62251 8.71845 736 ft 9 kts 169°
2026-04-23 15:25 45.62232 8.71850 736 ft 0 kts 169°